Theta_e
295 294 293 293 292 292 291 291 291 291 290 290 290 289 289 289 289 288 288 288 287 287 286 286 286 285 284 284 283 282 281 280 279 279 279 278 278 278 278 277 277 276 276 276 276 276 276 276 275 275 275 275 275 275 275 275 275 275 274 274 275 275
295 294 293 292 292 291 291 291 290 290 290 290 290 289 289 288 288 288 287 287 287 286 286 286 285 284 283 282 282 281 280 279 279 278 277 277 278 277 277 276 276 276 276 276 276 275 275 275 274 274 274 274 274 274 274 274 274 273 273 273 274 274
295 294 293 293 291 290 290 290 290 290 289 289 289 289 288 288 288 287 287 287 286 285 285 284 284 283 282 281 281 280 279 279 278 278 277 277 277 277 276 276 276 276 275 275 275 274 274 274 274 274 274 273 273 273 273 273 273 272 272 272 272 273
294 293 290 289 288 288 288 289 288 287 288 289 289 288 287 287 287 287 286 286 286 285 284 283 283 282 281 280 279 279 278 278 278 277 277 276 276 276 276 276 275 275 275 274 274 274 274 273 273 273 273 272 272 272 273 272 272 271 271 271 271 271
295 294 292 291 290 289 288 287 288 288 288 288 288 288 287 287 287 287 286 285 285 284 283 282 281 281 280 279 278 278 277 277 277 277 276 276 276 276 275 275 275 274 274 274 274 273 273 273 272 272 272 272 272 271 271 271 271 271 270 270 270 270
294 292 289 289 289 288 288 288 288 287 287 287 287 287 287 287 286 286 285 285 284 283 282 281 280 279 279 278 278 277 277 276 276 276 275 275 275 275 275 274 274 274 273 273 272 272 271 271 271 271 271 271 271 270 270 270 270 270 270 270 270 270
291 291 290 290 289 289 288 288 287 287 287 287 287 287 287 286 286 285 285 284 283 282 281 280 279 279 278 278 277 276 276 276 275 275 275 274 274 274 274 274 273 273 272 272 271 271 271 271 271 271 271 271 270 270 270 270 270 270 270 270 270 271
292 290 289 289 289 289 288 287 287 287 287 287 287 287 286 286 285 285 284 283 282 281 281 280 279 278 278 277 276 276 275 275 275 274 274 274 273 273 273 273 272 272 271 271 271 270 270 270 270 270 270 270 270 270 270 270 269 270 270 270 270 270
289 289 289 290 289 288 287 287 287 286 286 286 286 286 286 286 285 284 283 282 282 281 280 279 279 278 277 276 276 275 275 274 274 273 273 273 273 272 271 271 271 271 270 270 270 270 270 270 270 269 269 269 269 269 269 269 269 270 270 270 270 271
289 289 289 288 288 287 287 286 286 286 286 286 286 286 285 285 284 283 283 282 281 281 280 279 278 277 277 276 275 274 274 273 273 273 272 272 271 271 271 270 270 269 269 269 269 270 269 269 269 269 269 269 269 269 269 270 270 270 270 270 271 271
289 289 289 289 288 287 286 286 285 285 285 285 285 285 285 285 284 283 282 281 281 280 280 279 277 276 275 275 274 274 273 273 272 272 271 271 270 270 270 269 269 269 268 269 269 269 269 269 269 269 269 269 270 270 270 270 270 270 270 271 272 273
290 290 289 289 287 287 286 285 284 284 285 285 285 285 285 284 283 282 282 281 280 280 278 277 276 275 275 274 273 273 273 272 271 270 270 269 269 269 268 268 268 268 268 268 268 269 269 269 269 271 274 274 270 270 270 270 271 272 273 273 273 273
292 291 291 290 288 287 286 286 285 284 284 284 284 284 284 283 282 282 281 280 280 278 277 276 275 275 274 274 273 272 272 271 270 269 268 268 267 267 267 267 267 267 268 268 268 268 269 269 270 273 275 276 277 274 273 273 273 273 273 273 273 273
291 291 291 291 290 288 287 286 284 283 283 283 283 284 283 282 282 281 280 280 279 277 276 275 275 274 273 273 272 271 270 269 268 268 267 267 267 267 267 267 267 267 268 268 268 268 269 270 272 274 275 276 276 277 275 274 274 274 274 274 273 273
291 291 291 291 291 290 288 287 285 284 284 283 283 282 281 281 281 280 279 278 277 276 276 275 274 273 272 272 271 270 269 268 268 267 267 266 267 267 266 267 267 267 268 268 268 269 269 269 272 274 275 276 276 277 276 275 274 274 274 274 274 273
290 290 290 291 291 291 290 287 286 286 285 284 282 281 280 280 280 279 278 277 277 276 275 274 273 272 271 270 269 269 268 267 267 267 266 266 266 266 266 267 267 267 268 268 268 269 269 269 271 273 274 275 276 276 277 275 275 274 274 273 273 272
290 290 289 288 289 290 288 286 286 283 282 282 281 280 279 279 279 278 278 276 276 275 274 273 272 271 270 269 268 267 266 266 265 266 266 266 266 266 266 266 266 267 268 268 268 268 268 268 271 273 274 275 276 276 277 275 274 273 273 273 273 272
290 290 290 289 288 288 287 287 284 283 282 281 280 279 279 279 278 278 277 275 275 274 273 272 271 270 268 268 266 266 266 265 265 265 266 266 267 267 267 267 267 267 267 268 267 267 266 267 271 272 274 275 275 276 275 273 272 272 272 272 272 273
289 290 289 288 288 287 286 284 283 282 280 279 279 278 278 278 277 277 276 275 274 273 273 272 271 268 267 267 266 265 265 266 266 266 266 266 266 266 267 267 267 267 267 267 266 266 266 266 269 271 273 274 275 275 273 273 272 272 271 271 272 272
289 289 289 287 285 286 284 283 282 281 279 278 277 277 277 277 276 276 275 274 274 273 272 272 270 268 267 266 266 266 266 266 266 266 267 266 266 266 266 267 267 267 267 266 266 266 265 266 268 271 272 274 275 275 273 272 271 271 271 271 272 272
290 288 285 284 284 283 282 282 281 280 278 278 277 277 276 276 276 276 275 274 273 272 271 271 269 268 267 266 266 266 266 266 266 266 266 266 267 266 266 266 266 266 266 266 266 268 267 266 267 271 272 274 274 274 273 272 271 270 270 271 271 273
287 285 284 285 286 282 281 281 281 280 278 277 277 276 276 277 277 276 275 273 272 271 270 270 269 268 267 266 266 266 266 266 265 265 266 266 266 266 266 266 265 265 265 266 266 266 266 266 266 268 272 273 274 275 273 272 270 269 270 271 271 272
288 288 287 286 282 281 280 280 280 279 278 277 276 276 277 277 276 274 273 272 270 270 269 269 268 268 267 267 266 266 266 266 265 265 265 265 265 265 265 265 265 265 264 265 265 265 266 266 266 267 272 273 274 274 274 272 271 271 271 271 272 272
286 285 284 283 281 280 280 280 280 279 277 276 276 277 277 275 274 273 271 270 269 268 267 267 268 267 266 266 265 265 264 265 265 265 264 264 264 264 264 264 264 263 264 265 266 266 266 268 270 268 271 272 273 274 274 272 272 273 273 272 271 271
284 284 284 282 281 280 280 280 279 278 277 276 277 275 274 273 272 270 269 268 267 267 266 266 266 265 265 264 265 264 264 264 263 263 263 264 264 263 263 262 263 263 264 265 266 267 267 268 268 271 269 271 272 273 274 275 274 276 274 272 270 270
284 284 283 280 280 279 281 281 280 279 277 277 275 273 272 271 270 269 268 266 266 265 265 264 264 264 264 264 264 264 263 263 262 262 263 263 263 262 262 262 263 263 264 264 265 266 267 268 267 269 271 270 272 273 274 275 275 275 273 272 271 270
286 284 282 278 278 279 280 280 281 279 278 277 273 272 270 269 268 267 266 265 264 264 264 263 263 262 263 264 264 263 262 262 262 261 262 263 263 262 262 263 264 263 264 264 265 265 265 266 267 267 269 271 272 273 273 274 274 274 274 271 270 270
281 281 282 278 276 278 278 279 280 278 279 274 272 271 270 268 267 266 265 264 263 263 262 262 261 262 262 263 264 264 263 262 262 262 262 262 263 263 263 264 264 264 264 264 265 265 265 265 265 266 267 269 270 271 272 273 273 273 273 272 270 272
282 283 282 281 278 277 278 279 279 279 275 271 271 270 268 267 267 265 264 263 262 262 262 261 261 261 261 262 263 263 263 263 263 263 262 262 263 264 264 264 264 264 264 264 264 265 265 264 265 266 267 268 268 269 271 271 271 272 272 270 269 270
284 284 283 282 281 277 277 277 278 276 273 271 270 269 268 267 266 265 264 263 262 262 261 261 261 261 261 262 262 262 262 263 264 263 263 263 264 263 263 263 264 264 264 263 264 264 264 264 264 265 266 267 269 270 271 271 270 270 269 268 269 269
283 283 283 283 281 277 276 276 276 274 272 271 270 268 268 267 265 264 263 262 262 262 261 261 261 261 261 261 262 263 263 263 264 264 264 266 266 265 264 264 265 265 265 264 264 263 263 263 264 265 269 270 272 271 270 269 269 269 268 270 271 267
283 282 282 282 279 276 275 275 275 272 272 270 269 268 267 266 264 263 262 262 261 261 261 261 261 261 261 261 262 262 263 266 268 266 265 265 268 270 270 269 265 266 265 265 265 265 263 264 265 270 272 272 272 272 272 272 272 271 270 271 270 266
281 281 281 281 277 275 275 274 274 271 270 269 268 268 267 265 264 263 262 262 261 262 261 261 261 261 261 262 262 262 262 264 266 269 269 269 270 271 271 271 270 271 270 266 264 267 270 270 271 271 271 271 271 271 271 271 270 270 270 270 265 259
281 280 280 281 278 275 274 273 272 269 269 268 268 268 267 265 264 263 262 262 263 263 261 262 261 261 262 262 262 262 262 263 263 265 269 271 271 272 272 272 271 271 271 271 268 266 265 269 270 271 271 270 270 270 270 270 270 270 270 268 266 257
285 283 282 282 278 275 273 272 271 269 268 267 267 268 267 266 265 264 263 263 263 262 262 262 262 262 262 261 261 262 263 263 263 263 265 268 271 272 272 271 271 271 271 271 271 270 269 269 270 270 270 270 270 270 269 268 268 269 269 266 258 254
285 284 283 281 278 275 272 272 271 268 267 266 267 268 267 266 265 265 263 263 262 262 262 262 262 262 262 262 262 262 263 263 264 264 264 263 264 267 269 271 270 270 271 270 270 270 270 270 270 270 269 269 269 268 268 266 263 266 267 264 255 255
287 285 282 279 277 273 272 272 271 268 267 266 266 267 267 266 265 265 264 263 263 262 262 262 263 263 262 262 263 263 263 263 264 264 263 263 263 263 262 262 264 267 269 267 267 268 269 269 269 269 269 269 268 267 265 263 255 255 255 256 254 255
286 286 283 278 275 272 271 271 271 268 266 265 266 266 266 265 264 264 263 263 263 263 263 263 263 263 263 263 263 263 263 263 263 263 262 262 262 262 261 259 258 257 264 268 266 267 268 269 269 268 268 267 266 264 262 253 252 251 252 253 253 253
Wind_Speed
13 14 16 15 14 13 14 15 14 13 13 14 16 20 21 20 17 15 13 14 13 13 16 16 14 12 11 10 10 10 10 10 9 9 8 7 7 8 7 7 6 5 4 4 4 5 5 4 4 4 3 3 3 4 5 4 4 5 5 4 4 5
15 15 15 15 17 16 14 14 12 14 16 14 15 13 11 12 15 16 16 16 14 13 12 13 13 12 12 11 12 11 11 10 10 9 9 9 7 7 7 7 6 6 5 5 6 5 5 4 3 3 2 2 3 3 5 5 4 4 5 4 4 5
13 12 12 13 9 7 7 11 15 15 12 13 15 17 17 17 17 15 16 14 15 14 16 15 14 14 11 11 11 11 10 9 9 9 8 7 8 8 8 7 7 6 6 6 5 5 4 3 3 3 3 3 3 4 4 4 5 5 5 5 6 5
11 9 6 3 6 8 10 11 8 10 15 17 15 14 14 16 15 16 16 15 14 16 14 14 11 12 11 12 11 11 11 10 10 9 9 9 7 8 8 8 6 6 6 5 5 4 4 3 3 3 2 3 4 4 4 5 5 5 6 5 7 6
11 12 13 14 14 13 12 10 12 14 14 12 12 15 17 17 17 15 13 13 14 15 13 12 12 12 13 13 11 12 11 11 10 9 10 9 8 7 7 7 7 6 6 5 5 4 3 3 3 3 3 4 5 5 5 5 4 5 6 7 8 7
10 9 9 10 10 12 14 15 14 12 11 13 14 16 17 14 13 14 14 13 13 13 13 14 12 14 14 14 12 13 12 11 10 9 9 9 8 8 7 7 7 6 5 5 4 4 3 3 3 3 3 4 5 5 6 5 6 6 6 8 8 8
8 11 12 13 14 13 12 13 13 13 15 14 15 17 16 13 11 12 13 13 14 14 15 15 14 15 15 14 12 13 12 12 11 10 10 10 9 8 7 6 6 6 5 6 5 4 4 4 4 4 4 4 4 5 6 6 6 6 7 8 9 9
10 9 10 11 12 13 12 13 13 14 13 15 15 14 12 15 13 13 12 12 14 15 16 16 15 16 17 15 13 14 13 12 11 11 9 10 10 8 7 7 6 6 6 5 5 4 4 4 3 4 4 5 5 6 6 6 7 7 8 9 9 9
8 10 11 13 13 11 12 13 14 13 13 13 12 12 13 13 13 14 14 14 15 14 16 16 17 16 15 14 13 12 12 12 11 11 11 9 10 9 8 7 7 5 6 5 4 4 4 3 3 4 4 5 6 7 7 7 7 9 8 9 9 9
9 10 13 12 11 12 12 11 13 13 15 16 14 13 12 11 13 14 15 15 15 15 16 16 14 13 13 12 12 12 12 12 11 11 10 10 10 9 9 8 8 5 5 4 3 3 3 3 4 4 6 6 7 7 7 7 8 8 8 9 10 10
10 12 12 13 12 11 13 12 11 10 10 10 11 12 14 13 13 14 14 15 15 15 15 12 11 11 12 13 13 13 13 13 12 11 11 10 9 8 8 7 7 6 5 4 4 4 4 4 5 5 6 7 8 7 7 7 7 8 10 11 11 11
11 12 12 12 12 13 12 12 12 13 14 14 14 14 12 12 14 15 15 16 16 13 12 13 12 12 13 13 14 14 13 12 12 11 10 10 9 8 7 7 6 6 6 5 5 5 5 5 5 9 15 13 7 6 5 5 8 10 11 11 12 12
13 13 13 14 14 15 14 14 14 12 12 11 12 13 13 14 14 14 15 16 14 13 13 13 14 14 15 14 13 11 13 12 11 11 10 10 9 9 7 7 8 6 6 6 6 6 6 6 7 14 14 14 15 8 6 8 9 10 11 11 11 12
15 16 17 16 15 14 13 12 12 11 13 13 14 13 12 13 14 15 15 14 13 14 15 15 14 14 13 13 13 13 12 11 11 11 10 10 10 8 7 7 7 6 6 6 6 7 7 6 9 13 13 13 13 12 9 8 8 9 10 10 11 11
14 15 15 13 13 13 14 15 13 14 14 14 13 11 13 14 14 13 13 12 13 14 14 12 13 13 12 12 12 11 11 12 11 11 11 11 9 9 8 7 7 7 7 7 7 7 7 6 9 12 13 12 13 13 11 8 9 10 10 10 11 11
10 11 12 13 14 15 14 14 16 17 14 12 10 13 13 13 12 12 12 11 12 13 13 12 13 13 12 11 11 11 11 11 12 10 8 8 9 8 8 8 8 7 7 7 7 6 6 6 8 12 12 12 12 13 12 8 9 9 10 11 10 10
10 10 9 9 11 11 9 9 11 6 8 11 12 12 13 12 12 11 12 12 13 13 12 13 13 14 13 12 12 11 11 11 10 10 8 8 9 9 9 8 8 7 6 6 5 5 5 5 10 11 12 12 12 12 11 7 7 8 8 9 10 10
10 10 11 9 8 9 10 11 9 11 11 11 13 12 12 12 12 12 12 13 13 14 14 16 15 14 14 14 13 13 13 12 12 11 10 9 7 6 6 6 6 7 7 7 5 4 5 6 10 11 12 12 11 12 7 6 7 7 8 8 10 11
8 10 8 7 9 9 10 8 10 11 11 12 10 12 12 12 13 14 15 15 15 15 15 16 16 16 15 15 15 14 13 11 10 9 8 9 9 9 8 7 7 6 6 6 6 6 6 6 8 11 11 11 11 9 4 5 5 7 8 9 10 11
7 7 8 7 7 9 8 10 12 12 12 12 11 12 13 14 16 16 15 16 16 16 16 16 17 18 16 16 16 15 10 8 7 9 8 9 10 9 8 7 6 6 6 7 7 6 6 5 8 11 11 11 11 8 4 4 6 6 7 9 10 9
8 6 5 5 7 6 7 10 12 12 12 12 13 13 14 16 16 15 17 17 15 15 15 15 16 17 17 15 11 11 11 11 10 9 7 6 7 8 7 6 6 5 4 5 5 8 8 6 8 12 10 11 10 8 5 5 5 6 7 8 9 9
3 3 5 7 9 5 8 9 11 12 13 12 12 14 15 17 19 14 11 12 13 13 14 13 16 16 17 16 15 8 8 8 9 9 9 7 6 7 7 6 6 6 5 4 5 5 6 6 6 7 11 10 10 10 6 4 5 7 8 8 8 8
7 9 9 6 4 7 7 9 9 11 11 12 12 16 19 12 10 12 13 12 13 13 14 13 16 17 15 17 11 9 8 7 9 9 8 9 7 7 7 8 6 5 4 4 4 5 6 7 6 7 10 9 9 10 9 4 6 7 8 7 7 8
2 4 2 1 6 7 8 9 10 9 9 10 15 19 8 10 12 12 13 15 14 14 14 15 14 15 16 16 16 11 9 5 6 7 8 6 8 9 8 7 5 4 3 4 5 5 5 7 10 4 6 9 10 9 11 7 6 8 7 8 7 8
4 4 4 4 6 7 8 9 9 8 8 14 16 7 10 10 12 13 14 14 15 15 15 15 17 15 13 16 16 11 13 12 11 8 7 9 8 8 8 7 5 5 4 4 4 4 5 6 4 6 4 8 9 10 11 12 9 13 9 8 8 8
5 6 4 0 1 3 6 12 12 11 13 17 6 9 9 11 12 13 14 14 14 15 14 14 14 14 14 18 17 9 12 10 9 8 7 7 8 8 7 6 6 5 5 4 4 4 3 2 2 4 7 7 9 10 10 10 12 14 8 8 8 10
8 5 4 1 3 4 7 7 12 12 16 9 10 11 13 13 14 14 15 15 15 15 13 13 12 13 14 15 17 13 10 11 10 9 7 8 8 7 7 7 7 7 6 5 5 4 3 3 2 2 6 9 9 9 9 10 12 13 14 9 5 9
2 3 6 5 5 7 6 7 7 13 12 7 10 11 13 15 15 15 15 14 14 15 15 16 13 12 11 11 13 6 8 11 10 9 9 7 7 8 8 8 8 6 6 5 4 5 4 2 2 3 5 7 9 9 9 11 11 12 14 12 10 15
6 8 8 9 6 7 7 8 10 8 4 11 10 12 14 15 16 15 14 15 14 14 16 18 14 12 10 8 7 5 6 6 8 9 9 9 8 8 7 7 7 7 7 6 6 5 4 2 3 4 5 5 6 6 4 5 5 10 10 7 7 8
8 9 8 10 9 8 8 9 10 7 8 9 12 13 14 16 17 18 17 17 15 15 13 8 14 14 10 8 8 9 7 4 6 8 9 11 11 11 10 8 8 8 8 7 6 5 4 4 4 5 6 6 6 3 3 3 4 3 4 5 6 4
9 10 10 12 8 8 9 11 9 8 11 12 12 15 16 15 14 13 14 14 13 13 8 5 8 8 10 11 7 6 6 9 8 8 7 5 5 8 10 10 8 7 6 6 7 7 5 5 5 6 9 7 4 3 2 2 2 1 1 6 11 6
9 10 11 12 6 9 11 12 11 9 10 12 13 15 16 15 14 14 15 14 13 12 14 10 8 7 8 10 11 10 9 7 10 7 9 9 12 14 13 12 8 7 6 6 5 5 6 6 5 10 7 3 3 4 6 7 7 7 5 8 11 7
9 10 11 10 7 10 11 11 11 10 12 14 15 17 17 17 15 15 14 14 14 16 12 9 8 8 7 8 9 11 15 11 9 12 14 13 15 15 16 14 14 15 13 8 5 6 13 11 9 5 1 1 3 4 6 7 6 7 7 9 6 4
8 10 14 12 9 11 10 10 11 12 13 14 15 16 16 19 18 17 17 17 15 15 10 9 10 11 10 8 9 10 12 11 14 10 13 16 15 15 15 14 14 14 13 14 11 5 1 5 6 3 1 2 3 5 6 6 6 7 8 10 9 2
11 11 11 11 10 10 10 11 13 12 12 14 16 17 18 19 18 18 16 16 13 9 11 9 10 10 10 12 12 10 13 11 13 13 12 11 15 15 15 15 14 14 12 12 12 11 8 6 5 3 3 3 3 5 6 5 6 8 10 9 6 3
10 11 12 12 13 14 13 14 14 14 16 16 17 19 20 20 21 21 18 17 13 13 12 11 10 10 10 9 14 14 11 13 13 16 17 17 12 10 11 13 14 14 14 13 11 7 7 6 4 4 4 4 4 5 5 6 4 6 10 8 3 3
13 12 13 15 13 12 13 16 16 16 17 18 19 19 18 17 18 14 16 21 17 7 11 10 11 9 11 14 15 14 14 13 12 13 13 13 15 16 14 10 8 9 12 8 7 6 7 6 5 6 5 5 6 6 5 5 4 5 6 7 4 4
14 14 12 11 10 12 14 16 15 14 15 17 19 20 19 17 17 16 15 16 19 11 8 9 8 13 17 14 9 13 12 12 13 12 10 9 10 10 10 7 5 3 3 12 9 6 6 6 5 6 7 7 8 7 4 3 4 4 4 4 5 4
Wind_Direction
199 201 201 201 202 200 199 198 191 192 197 197 195 197 197 192 190 189 188 189 189 188 187 185 183 179 176 171 165 160 161 160 159 159 155 143 145 143 144 148 151 151 165 168 183 186 192 186 188 187 190 192 217 230 240 241 237 242 249 244 254 263
202 201 198 197 199 197 197 193 191 196 197 192 198 202 197 192 191 188 190 192 186 186 181 185 181 176 172 168 164 165 165 162 157 154 154 160 148 148 145 151 155 160 171 179 182 189 186 186 185 177 185 201 221 232 244 247 241 250 253 261 258 266
211 204 202 206 203 201 192 190 195 198 189 196 197 195 195 195 196 187 194 185 188 181 185 183 176 174 167 161 165 163 163 159 157 158 155 142 155 149 152 156 160 165 172 176 180 183 188 180 189 175 179 206 233 239 242 245 248 253 258 265 266 262
210 209 204 192 184 191 195 198 189 192 198 198 195 193 195 199 194 194 191 187 186 185 183 176 171 167 164 163 163 162 161 160 159 155 149 156 154 150 154 158 158 163 171 174 186 187 185 185 180 182 181 222 234 243 236 244 247 250 260 258 265 262
205 201 193 189 191 199 198 191 195 199 201 196 196 194 201 199 198 193 185 185 185 184 176 168 169 168 168 166 167 165 162 159 155 153 153 152 151 149 154 158 158 165 167 174 182 184 184 183 189 188 202 223 230 237 242 244 243 252 258 259 260 263
207 185 182 194 201 200 200 201 200 197 193 196 196 201 203 198 192 190 187 185 184 176 168 172 169 167 171 173 172 168 164 158 155 150 148 147 146 151 155 154 159 159 169 176 182 182 187 189 191 201 214 225 230 240 247 243 246 250 253 255 259 261
191 194 195 196 201 205 204 201 198 197 200 196 199 204 198 192 186 186 190 185 178 175 174 173 171 174 176 176 172 169 161 158 152 152 151 146 149 153 150 156 155 160 167 181 185 193 193 196 195 205 220 227 227 235 240 243 246 248 251 253 255 258
207 195 197 206 211 209 207 204 202 202 199 200 202 201 190 191 184 186 182 182 179 180 179 177 176 179 179 175 170 167 161 156 154 152 151 151 150 148 155 157 163 167 178 178 189 188 194 191 192 205 221 228 234 237 237 241 245 248 251 251 252 252
213 205 209 212 210 203 201 201 204 203 198 201 201 201 195 189 182 182 182 182 184 183 184 182 184 180 176 173 168 161 157 157 153 151 152 151 150 153 157 161 158 166 170 180 177 189 190 197 200 213 227 231 234 234 239 245 247 249 249 250 250 251
215 214 218 216 213 206 208 209 207 201 197 199 196 192 190 187 183 183 184 183 186 187 187 188 180 173 171 165 160 161 157 152 151 151 146 145 151 154 157 162 162 159 156 173 176 190 187 198 212 223 227 232 230 233 237 239 245 251 256 255 255 256
222 223 223 220 216 212 210 208 206 201 205 200 189 190 194 186 183 183 183 185 189 190 186 175 170 168 163 163 159 157 158 156 151 147 145 144 143 142 146 147 148 157 159 169 176 192 201 206 221 224 227 226 229 224 231 240 251 255 257 258 261 261
229 228 226 224 217 215 211 206 204 201 199 197 192 190 188 175 187 185 186 189 191 182 172 169 167 168 165 163 164 162 156 153 149 144 142 144 144 141 144 145 146 155 164 172 189 197 209 218 220 230 232 229 211 215 226 238 244 253 260 265 269 267
232 233 230 227 220 216 211 207 205 202 201 195 189 188 186 182 184 188 187 190 182 172 167 168 171 166 170 168 160 157 154 151 147 143 141 141 143 144 142 144 149 159 171 182 195 208 212 218 223 233 237 241 244 234 232 249 259 262 264 265 268 273
230 232 231 228 222 216 211 207 202 194 200 193 191 187 176 181 185 187 188 183 173 170 171 172 167 167 167 161 162 157 150 143 143 144 144 143 141 143 139 148 161 163 177 186 200 212 219 223 233 238 244 248 249 251 254 257 259 261 265 270 272 273
225 225 227 225 220 215 212 203 195 199 199 191 190 166 175 183 184 184 181 176 173 173 171 166 164 165 162 163 155 150 146 146 147 146 149 153 147 142 151 160 163 174 179 191 200 213 220 229 239 248 254 257 257 259 261 262 265 268 266 270 275 282
231 228 222 218 216 213 210 195 196 204 194 180 160 170 176 176 181 178 177 173 174 170 166 162 161 162 160 152 148 148 149 150 151 144 139 134 142 150 153 162 167 172 181 191 201 211 226 234 242 254 258 261 262 263 267 267 267 271 278 280 281 280
225 231 232 225 218 217 204 198 203 167 143 158 166 170 169 177 173 175 173 172 171 165 162 161 162 159 155 153 150 149 150 149 142 143 145 149 153 156 159 162 166 177 176 185 197 209 227 237 247 255 260 263 268 270 273 278 285 284 278 277 280 282
232 227 229 221 207 210 194 196 173 162 171 158 165 166 170 169 171 174 171 174 173 169 168 165 164 159 156 155 155 156 155 153 156 151 149 147 143 140 143 152 158 168 176 185 186 201 233 246 252 261 264 267 269 275 282 284 282 279 282 282 284 285
231 232 226 208 198 191 195 171 162 160 150 159 164 164 165 166 175 181 179 177 174 173 170 167 162 160 160 159 158 160 158 152 149 146 142 141 147 151 156 158 161 166 170 176 180 200 231 245 255 262 264 264 269 279 267 267 267 274 279 284 287 288
239 235 217 211 197 193 172 161 157 154 157 163 160 162 172 174 187 184 178 180 177 173 170 169 164 162 161 162 165 163 154 140 131 142 150 147 147 152 155 154 149 164 171 182 186 198 220 240 255 259 261 264 268 272 267 269 265 266 276 282 285 283
243 216 196 183 200 198 162 154 151 151 167 166 169 170 174 190 188 181 184 181 172 169 168 167 165 163 162 163 151 156 143 151 150 146 140 137 132 138 144 140 149 158 169 184 186 210 223 234 246 258 261 263 268 274 266 262 268 274 276 283 285 286
154 170 186 203 216 148 151 152 159 167 168 176 166 178 190 195 193 180 163 158 163 163 164 166 165 164 163 157 127 129 139 136 135 144 145 140 133 137 134 139 148 160 172 176 184 205 228 237 244 251 258 264 273 280 280 258 274 279 278 281 286 296
190 206 212 217 149 150 155 157 159 178 176 167 176 195 202 184 151 155 161 157 157 161 163 163 166 162 153 125 140 134 130 144 143 140 142 137 135 130 135 151 157 152 162 179 206 208 223 220 231 250 256 271 279 283 288 274 271 276 281 286 300 305
265 266 279 136 151 155 161 162 177 179 169 172 197 207 159 148 158 150 152 158 159 159 159 160 160 157 151 148 130 132 129 117 119 125 123 117 131 139 139 139 138 144 169 195 208 210 215 234 234 212 255 274 280 285 292 287 280 295 304 310 303 304
268 272 241 182 169 167 169 166 179 181 179 197 209 153 148 151 149 151 151 153 155 158 158 158 155 153 153 146 137 133 142 145 141 133 141 138 134 135 132 136 144 159 179 192 199 205 220 214 212 243 252 269 280 287 293 297 303 314 317 309 306 312
273 260 282 3 123 176 175 179 187 188 191 213 149 144 142 146 147 147 150 153 155 153 155 155 153 151 153 150 137 135 133 144 142 139 143 130 125 132 141 151 156 167 174 181 197 208 188 178 157 246 264 265 276 290 297 304 313 317 316 313 314 314
240 264 283 207 176 197 205 203 198 197 210 195 142 153 151 147 149 151 156 156 155 154 152 150 153 154 155 160 150 140 140 139 144 134 138 129 141 146 144 155 163 166 169 177 188 187 178 169 177 219 256 264 278 295 297 311 316 319 319 316 313 311
235 243 249 240 202 214 211 219 206 207 217 138 153 151 151 149 152 157 158 156 155 156 153 150 151 154 147 144 150 123 142 145 150 139 142 145 147 151 152 157 157 158 171 174 170 179 175 173 178 234 246 255 273 275 293 316 318 319 317 319 318 311
222 244 243 249 217 206 211 210 222 226 139 165 154 154 150 155 156 156 157 160 160 156 160 157 158 157 154 144 138 128 124 137 136 134 138 152 151 147 149 146 154 164 171 167 175 172 179 176 205 222 245 247 256 247 267 317 304 313 320 321 298 303
232 242 238 242 233 195 209 212 218 195 160 160 159 153 155 160 167 166 169 166 163 167 167 155 152 150 146 152 146 141 140 135 138 136 153 161 162 157 157 156 164 170 168 167 170 169 164 197 203 225 239 255 243 234 261 275 273 299 336 313 298 354
233 236 232 235 220 178 199 213 210 180 167 166 162 160 163 170 167 163 161 163 164 172 174 148 147 146 145 143 129 117 140 157 150 146 131 145 137 155 154 160 162 160 160 156 165 163 178 180 214 230 241 247 297 318 308 285 269 296 241 310 338 4
233 237 234 240 200 185 202 209 201 179 172 164 167 165 169 168 166 168 170 170 171 166 168 167 153 146 142 141 136 128 114 121 137 141 146 147 158 157 155 152 152 153 146 154 168 166 179 190 209 238 260 334 324 338 345 341 343 344 339 352 359 1
235 238 246 242 199 204 207 205 193 179 176 174 174 175 174 166 171 176 173 172 178 177 169 153 147 152 141 136 129 129 132 134 145 147 146 148 155 156 155 152 157 161 165 163 169 194 195 209 230 240 291 320 11 5 3 3 8 358 1 6 20 8
239 233 238 239 215 213 210 203 197 188 182 179 178 178 176 177 175 178 182 181 175 168 162 158 149 147 141 139 135 128 122 139 136 141 153 155 154 157 159 157 161 165 171 174 169 171 258 215 210 215 151 85 38 31 18 24 21 19 19 22 22 5
246 237 235 235 219 210 205 205 208 190 180 180 180 181 183 186 186 184 180 176 169 155 151 147 145 152 152 143 140 135 146 143 146 141 145 155 160 159 156 153 158 162 166 170 171 172 177 180 180 160 135 89 68 39 26 24 23 27 22 31 25 2
249 242 234 228 214 206 200 206 206 188 187 181 184 187 191 190 192 186 176 176 166 152 157 158 159 151 152 141 145 147 140 149 152 149 144 136 144 154 153 152 153 157 157 162 162 161 158 160 155 137 119 99 67 47 34 37 9 25 30 35 29 334
264 251 239 232 216 203 202 211 208 192 184 182 185 187 191 193 191 186 184 173 164 137 155 153 159 146 142 149 152 154 154 151 151 149 151 157 160 158 152 151 143 145 150 141 140 149 157 160 146 131 113 90 70 52 59 61 34 20 357 7 8 346
275 267 255 233 211 206 208 218 211 185 184 183 184 186 189 186 181 177 173 174 173 166 148 152 138 154 146 152 130 148 148 149 151 154 156 154 152 148 141 135 137 125 137 151 144 145 152 151 131 125 96 83 75 58 52 56 30 32 355 344 323 321